Tracking 19717 objects as of 25-Jun-2019
HD Live streaming from Space Station
objects crossing your sky now

FENGYUN 1C DEB

Track FENGYUN 1C DEB now!
10-day predictions


NORAD ID: 31731
Int'l Code: 1999-025CEE
Perigee: 821.6 km
Apogee: 846.3 km
Inclination: 99.3 °
Period: 101.4 minutes
Semi major axis: 7204 km
RCS: 0.0064 m2 (small)
Launch date: May 10, 1999
Source: People's Republic of China (PRC)
Launch site: Taiyaun Space Center, China (TSC)

Note: This is SATELLITE DEBRIS
aabbcc
Your satellite tracking list
Your tracking list is empty




NASA's NSSDC Master Catalog

Two Line Element Set (TLE):
1 31731U 99025CEE 19175.62967015  .00000524  00000-0  27088-3 0  9998
2 31731  99.3010  50.5887 0017186  10.1917 349.9602 14.19568777622406
Source of the keplerian elements: AFSPC